Voltar ao catálogo

RUNNER-1

TYVAK-1005

AtivoCiênciaSSO
NORAD 56953·PAYLOAD·🇺🇸 United States

Lançado Jun 12, 2023 de Vandenberg Space Force Base

Loading…

Próximas Passagens (próximas 24 horas)

TLE

AtualizadoSource: Space-Track

Época: Sep 14, 2026, 08:48 UTC

1 56953U 23084X   26257.36727390  .00008333  00000-0  21602-3 0  9995
2 56953  97.6369  43.0241 0007592   4.9165 355.2153 15.39265883181310

Acompanhe RUNNER-1 em tempo real com AllMySat

Download on the App Store